| time (UTC) | temp F | wind direction | speed knots | gust knots | rain 1hr in | rain 24hr in | rain mn in | humidity % | barometer mb |
| 20260504214758 | 73 | 359 | 5.2 | 12.2 | 0.00 | 0.00 | 0.00 | 38 | 915.8 |
| 20260504214029 | 73 | 54 | 6.1 | 12.2 | 0.00 | 0.00 | 0.00 | 37 | 915.9 |
| 20260504213527 | 73 | 37 | 6.1 | 11.3 | 0.00 | 0.00 | 0.00 | 37 | 916.0 |
| 20260504213026 | 73 | 50 | 7.0 | 11.3 | 0.00 | 0.00 | 0.00 | 38 | 916.0 |
| 20260504212527 | 73 | 41 | 7.0 | 11.3 | 0.00 | 0.00 | 0.00 | 37 | 916.1 |
| 20260504212025 | 73 | 66 | 4.3 | 11.3 | 0.00 | 0.00 | 0.00 | 37 | 916.1 |
| 20260504211525 | 73 | 332 | 4.3 | 10.4 | 0.00 | 0.00 | 0.00 | 38 | 916.0 |
| 20260504211025 | 73 | 347 | 5.2 | 10.4 | 0.00 | 0.00 | 0.00 | 36 | 916.2 |
| 20260504210522 | 73 | 52 | 6.1 | 12.2 | 0.00 | 0.00 | 0.00 | 37 | 916.1 |
| 20260504210023 | 73 | 25 | 7.0 | 12.2 | 0.00 | 0.00 | 0.00 | 35 | 916.1 |
| 20260504205523 | 73 | 347 | 6.1 | 10.4 | 0.00 | 0.00 | 0.00 | 35 | 916.1 |
| 20260504205025 | 73 | 13 | 6.1 | 12.2 | 0.00 | 0.00 | 0.00 | 38 | 916.1 |
| 20260504204526 | 72 | 313 | 6.1 | 12.2 | 0.00 | 0.00 | 0.00 | 35 | 916.0 |
| 20260504204249 | 73 | 4 | 7.0 | 11.3 | 0.00 | 0.00 | 0.00 | 35 | 916.2 |
| 20260504203525 | 72 | 9 | 7.0 | 14.8 | 0.00 | 0.00 | 0.00 | 37 | 916.2 |
| 20260504203023 | 72 | 343 | 7.8 | 14.8 | 0.00 | 0.00 | 0.00 | 39 | 916.0 |
| 20260504202519 | 72 | 23 | 7.8 | 13.0 | 0.00 | 0.00 | 0.00 | 38 | 916.2 |
| 20260504202019 | 72 | 359 | 7.0 | 12.2 | 0.00 | 0.00 | 0.00 | 37 | 916.0 |
| 20260504201519 | 72 | 36 | 7.0 | 13.9 | 0.00 | 0.00 | 0.00 | 40 | 916.1 |
| 20260504201019 | 72 | 16 | 6.1 | 13.9 | 0.00 | 0.00 | 0.00 | 40 | 916.1 |
| 20260504200520 | 72 | 36 | 7.0 | 13.9 | 0.00 | 0.00 | 0.00 | 42 | 916.2 |
| 20260504200018 | 72 | 54 | 7.0 | 13.0 | 0.00 | 0.00 | 0.00 | 39 | 916.1 |
| 20260504195519 | 72 | 354 | 5.2 | 12.2 | 0.00 | 0.00 | 0.00 | 42 | 916.1 |
| 20260504195018 | 72 | 12 | 5.2 | 13.0 | 0.00 | 0.00 | 0.00 | 40 | 916.0 |
| 20260504194518 | 72 | 4 | 5.2 | 13.0 | 0.00 | 0.00 | 0.00 | 41 | 916.1 |
| 20260504194019 | 71 | 344 | 4.3 | 9.6 | 0.00 | 0.00 | 0.00 | 45 | 916.1 |
| 20260504193738 | 71 | 23 | 4.3 | 10.4 | 0.00 | 0.00 | 0.00 | 40 | 916.1 |
| 20260504193019 | 71 | 41 | 5.2 | 11.3 | 0.00 | 0.00 | 0.00 | 44 | 916.1 |
| 20260504192519 | 70 | 345 | 6.1 | 11.3 | 0.00 | 0.00 | 0.00 | 42 | 916.1 |
| 20260504192019 | 70 | 51 | 6.1 | 11.3 | 0.00 | 0.00 | 0.00 | 42 | 916.2 |
| 20260504191519 | 70 | 347 | 6.1 | 11.3 | 0.00 | 0.00 | 0.00 | 46 | 916.1 |
| 20260504191019 | 70 | 4 | 6.1 | 11.3 | 0.00 | 0.00 | 0.00 | 44 | 916.3 |
| 20260504190750 | 70 | 354 | 7.0 | 11.3 | 0.00 | 0.00 | 0.00 | 46 | 916.3 |
| 20260504190018 | 70 | 13 | 6.1 | 11.3 | 0.00 | 0.00 | 0.00 | 43 | 916.3 |
| 20260504185519 | 70 | 359 | 5.2 | 10.4 | 0.00 | 0.00 | 0.00 | 43 | 916.3 |
| 20260504185015 | 70 | 9 | 5.2 | 10.4 | 0.00 | 0.00 | 0.00 | 45 | 916.4 |
| 20260504184736 | 69 | 329 | 5.2 | 11.3 | 0.00 | 0.00 | 0.00 | 47 | 916.4 |
| 20260504184014 | 69 | 4 | 5.2 | 11.3 | 0.00 | 0.00 | 0.00 | 47 | 916.4 |
| 20260504183515 | 69 | 8 | 5.2 | 9.6 | 0.00 | 0.00 | 0.00 | 48 | 916.4 |
| 20260504183014 | 69 | 348 | 4.3 | 9.6 | 0.00 | 0.00 | 0.00 | 47 | 916.4 |
| 20260504182514 | 69 | 326 | 3.5 | 9.6 | 0.00 | 0.00 | 0.00 | 47 | 916.3 |
| 20260504182015 | 69 | 347 | 3.5 | 8.7 | 0.00 | 0.00 | 0.00 | 50 | 916.4 |
| 20260504181515 | 69 | 50 | 3.5 | 9.6 | 0.00 | 0.00 | 0.00 | 48 | 916.6 |
| 20260504181014 | 69 | 11 | 2.6 | 10.4 | 0.00 | 0.00 | 0.00 | 47 | 916.6 |
| 20260504180514 | 69 | 25 | 1.7 | 10.4 | 0.00 | 0.00 | 0.00 | 49 | 916.6 |
| 20260504180015 | 68 | 359 | 2.6 | 7.0 | 0.00 | 0.00 | 0.00 | 48 | 916.5 |
| 20260504175514 | 68 | 13 | 1.7 | 7.0 | 0.00 | 0.00 | 0.00 | 49 | 916.5 |
| 20260504175014 | 67 | 302 | 0.9 | 5.2 | 0.00 | 0.00 | 0.00 | 48 | 916.5 |
| 20260504174514 | 67 | 303 | 0.9 | 5.2 | 0.00 | 0.00 | 0.00 | 48 | 916.5 |
| 20260504174014 | 67 | 172 | 0.0 | 1.7 | 0.00 | 0.00 | 0.00 | 49 | 916.5 |
| 20260504173515 | 66 | 172 | 0.0 | 4.3 | 0.00 | 0.00 | 0.00 | 49 | 916.6 |
| 20260504173011 | 66 | 174 | 0.9 | 4.3 | 0.00 | 0.00 | 0.00 | 51 | 916.5 |
| 20260504172510 | 66 | 174 | 0.9 | 3.5 | 0.00 | 0.00 | 0.00 | 51 | 916.5 |
| 20260504172011 | 65 | 175 | 0.9 | 3.5 | 0.00 | 0.00 | 0.00 | 54 | 916.5 |
| 20260504171510 | 65 | 174 | 0.9 | 4.3 | 0.00 | 0.00 | 0.00 | 53 | 916.5 |
| 20260504171011 | 65 | 175 | 0.9 | 4.3 | 0.00 | 0.00 | 0.00 | 52 | 916.4 |
| 20260504170732 | 65 | 159 | 0.9 | 4.3 | 0.00 | 0.00 | 0.00 | 52 | 916.5 |
| 20260504150932 | 57 | 295 | 1.7 | 3.5 | 0.00 | 0.00 | 0.00 | 64 | 916.5 |
| 20260504150649 | 58 | 296 | 0.9 | 3.5 | 0.00 | 0.00 | 0.00 | 64 | 916.5 |
| 20260504141022 | 56 | 11 | 0.0 | 0.0 | 0.00 | 0.00 | 0.00 | 66 | 916.4 |
| 20260504140258 | 55 | 12 | 0.0 | 0.0 | 0.00 | 0.00 | 0.00 | 67 | 916.4 |
| 20260504130636 | 49 | 36 | 0.0 | 4.3 | 0.00 | 0.00 | 0.00 | 67 | 915.9 |
| 20260504130130 | 49 | 25 | 0.0 | 0.0 | 0.00 | 0.00 | 0.00 | 67 | 915.8 |
| 20260504110341 | 49 | 54 | 3.5 | 6.1 | 0.00 | 0.00 | 0.00 | 67 | 915.7 |
| 20260504100217 | 52 | 56 | 0.0 | 0.0 | 0.00 | 0.00 | 0.00 | 61 | 915.8 |
| 20260504081642 | 55 | 50 | 0.0 | 0.0 | 0.00 | 0.00 | 0.00 | 57 | 915.8 |
| 20260504081403 | 55 | 48 | 0.0 | 0.0 | 0.00 | 0.00 | 0.00 | 58 | 915.8 |
| 20260504080638 | 56 | 51 | 0.0 | 0.0 | 0.00 | 0.00 | 0.00 | 56 | 915.8 |
| 20260504080142 | 55 | 53 | 0.0 | 0.0 | 0.00 | 0.00 | 0.00 | 56 | 915.8 |
| 20260504070115 | 58 | 54 | 0.0 | 0.0 | 0.00 | 0.00 | 0.00 | 53 | 916.0 |
| 20260504060115 | 58 | 48 | 0.0 | 0.0 | 0.00 | 0.00 | 0.00 | 52 | 916.2 |
| 20260504050611 | 59 | 37 | 0.0 | 0.0 | 0.00 | 0.00 | 0.00 | 51 | 916.4 |
| 20260504050107 | 60 | 35 | 0.0 | 0.0 | 0.00 | 0.00 | 0.00 | 50 | 916.5 |
| 20260504045606 | 60 | 33 | 0.0 | 0.0 | 0.00 | 0.00 | 0.00 | 49 | 916.5 |
| 20260504045107 | 61 | 47 | 0.0 | 0.9 | 0.00 | 0.00 | 0.00 | 48 | 916.5 |
| 20260504044829 | 61 | 43 | 0.9 | 4.3 | 0.00 | 0.00 | 0.00 | 48 | 916.6 |
| 20260504044106 | 61 | 41 | 0.9 | 4.3 | 0.00 | 0.00 | 0.00 | 47 | 916.5 |
| 20260504043606 | 62 | 35 | 0.9 | 3.5 | 0.00 | 0.00 | 0.00 | 46 | 916.4 |
| 20260504043106 | 62 | 27 | 0.9 | 3.5 | 0.00 | 0.00 | 0.00 | 46 | 916.5 |
| 20260504042606 | 62 | 25 | 1.7 | 4.3 | 0.00 | 0.00 | 0.00 | 46 | 916.6 |
| 20260504042103 | 63 | 23 | 0.9 | 4.3 | 0.00 | 0.00 | 0.00 | 45 | 916.5 |
| 20260504041603 | 63 | 21 | 0.0 | 3.5 | 0.00 | 0.00 | 0.00 | 45 | 916.6 |
| 20260504041103 | 63 | 22 | 0.0 | 4.3 | 0.00 | 0.00 | 0.00 | 45 | 916.5 |
| 20260504040603 | 63 | 33 | 0.0 | 4.3 | 0.00 | 0.00 | 0.00 | 45 | 916.4 |
| 20260504040103 | 63 | 8 | 0.0 | 0.0 | 0.00 | 0.00 | 0.00 | 45 | 916.4 |
| 20260504035601 | 63 | 38 | 0.0 | 0.0 | 0.00 | 0.00 | 0.00 | 45 | 916.4 |
| 20260504035101 | 63 | 33 | 0.0 | 0.0 | 0.00 | 0.00 | 0.00 | 45 | 916.4 |
| 20260504034601 | 63 | 27 | 0.9 | 3.5 | 0.00 | 0.00 | 0.00 | 45 | 916.3 |
| 20260504034105 | 63 | 25 | 1.7 | 4.3 | 0.00 | 0.00 | 0.00 | 45 | 916.3 |
| 20260504033553 | 64 | 22 | 1.7 | 4.3 | 0.00 | 0.00 | 0.00 | 45 | 916.2 |
| 20260504033048 | 64 | 25 | 1.7 | 5.2 | 0.00 | 0.00 | 0.00 | 45 | 916.1 |
| 20260504032542 | 64 | 35 | 1.7 | 5.2 | 0.00 | 0.00 | 0.00 | 45 | 916.2 |
| 20260504032032 | 64 | 26 | 0.9 | 4.3 | 0.00 | 0.00 | 0.00 | 45 | 916.2 |
| 20260504031526 | 64 | 37 | 0.9 | 4.3 | 0.00 | 0.00 | 0.00 | 45 | 916.2 |
| 20260504031021 | 64 | 37 | 1.7 | 4.3 | 0.00 | 0.00 | 0.00 | 46 | 916.3 |
| 20260504030734 | 64 | 42 | 1.7 | 4.3 | 0.00 | 0.00 | 0.00 | 47 | 916.3 |
| 20260504030004 | 65 | 24 | 1.7 | 3.5 | 0.00 | 0.00 | 0.00 | 46 | 916.2 |
| 20260504025458 | 67 | 16 | 0.9 | 3.5 | 0.00 | 0.00 | 0.00 | 43 | 916.1 |
| 20260504024949 | 69 | 317 | 0.0 | 0.0 | 0.00 | 0.00 | 0.00 | 40 | 916.1 |
| 20260504024442 | 69 | 317 | 0.0 | 0.0 | 0.00 | 0.00 | 0.00 | 39 | 916.1 |
| 20260504023936 | 70 | 316 | 0.0 | 0.0 | 0.00 | 0.00 | 0.00 | 39 | 916.2 |
| 20260504023427 | 71 | 316 | 0.0 | 0.0 | 0.00 | 0.00 | 0.00 | 39 | 916.2 |
| 20260504023141 | 71 | 317 | 0.0 | 0.0 | 0.00 | 0.00 | 0.00 | 40 | 916.2 |
| 20260504022855 | 72 | 317 | 0.0 | 0.0 | 0.00 | 0.00 | 0.00 | 39 | 916.3 |
| 20260504021903 | 72 | 316 | 0.0 | 0.0 | 0.00 | 0.00 | 0.00 | 40 | 916.2 |
| 20260504021358 | 73 | 317 | 0.0 | 0.0 | 0.00 | 0.00 | 0.00 | 38 | 916.3 |
| 20260504020853 | 73 | 317 | 0.0 | 0.9 | 0.00 | 0.00 | 0.00 | 38 | 916.4 |
| 20260504020600 | 73 | 316 | 0.0 | 1.7 | 0.00 | 0.00 | 0.00 | 37 | 916.5 |
| 20260504015836 | 74 | 316 | 0.0 | 4.3 | 0.00 | 0.00 | 0.00 | 35 | 916.4 |
| 20260504015330 | 74 | 317 | 1.7 | 4.3 | 0.00 | 0.00 | 0.00 | 33 | 916.5 |
| 20260504014820 | 74 | 305 | 1.7 | 5.2 | 0.00 | 0.00 | 0.00 | 33 | 916.6 |
| 20260504014315 | 74 | 318 | 0.0 | 4.3 | 0.00 | 0.00 | 0.00 | 33 | 916.6 |
| 20260504014248 | 74 | 347 | 0.9 | 7.0 | 0.00 | 0.00 | 0.00 | 33 | 916.6 |
| 20260504013258 | 74 | 347 | 0.9 | 7.0 | 0.00 | 0.00 | 0.00 | 32 | 916.6 |
| 20260504012753 | 74 | 343 | 2.6 | 8.7 | 0.00 | 0.00 | 0.00 | 35 | 916.7 |
| 20260504012503 | 74 | 324 | 4.3 | 8.7 | 0.00 | 0.00 | 0.00 | 35 | 916.7 |
| 20260504011736 | 74 | 298 | 3.5 | 8.7 | 0.00 | 0.00 | 0.00 | 34 | 916.7 |
| 20260504011230 | 75 | 312 | 1.7 | 7.0 | 0.00 | 0.00 | 0.00 | 32 | 916.8 |
| 20260504010737 | 75 | 305 | 1.7 | 7.0 | 0.00 | 0.00 | 0.00 | 31 | 916.8 |
| 20260504010214 | 75 | 305 | 2.6 | 7.0 | 0.00 | 0.00 | 0.00 | 31 | 916.9 |
| 20260504005943 | 75 | 324 | 3.5 | 8.7 | 0.00 | 0.00 | 0.00 | 31 | 917.0 |
| 20260504005203 | 75 | 318 | 2.6 | 8.7 | 0.00 | 0.00 | 0.00 | 31 | 917.0 |
| 20260504004653 | 75 | 324 | 3.5 | 8.7 | 0.00 | 0.00 | 0.00 | 32 | 917.0 |
| 20260504004146 | 75 | 305 | 3.5 | 8.7 | 0.00 | 0.00 | 0.00 | 32 | 917.0 |
| 20260504003640 | 76 | 295 | 1.7 | 6.1 | 0.00 | 0.00 | 0.00 | 32 | 917.0 |
| 20260504003130 | 76 | 281 | 1.7 | 8.7 | 0.00 | 0.00 | 0.00 | 34 | 917.0 |
| 20260504002624 | 76 | 289 | 1.7 | 8.7 | 0.00 | 0.00 | 0.00 | 35 | 917.1 |
| 20260504002118 | 76 | 291 | 1.7 | 9.6 | 0.00 | 0.00 | 0.00 | 34 | 917.2 |
| 20260504002053 | 75 | 287 | 2.6 | 9.6 | 0.00 | 0.00 | 0.00 | 35 | 917.2 |
| 20260504001102 | 75 | 287 | 4.3 | 9.6 | 0.00 | 0.00 | 0.00 | 32 | 917.2 |
| 20260504000606 | 76 | 302 | 3.5 | 9.6 | 0.00 | 0.00 | 0.00 | 31 | 917.4 |
| 20260504000059 | 76 | 295 | 2.6 | 8.7 | 0.00 | 0.00 | 0.00 | 30 | 917.4 |
| 20260504000032 | 76 | 289 | 1.7 | 8.7 | 0.00 | 0.00 | 0.00 | 33 | 917.4 |
| 20260503235034 | 75 | 287 | 0.9 | 7.8 | 0.00 | 0.00 | 0.00 | 32 | 917.4 |
| 20260503235007 | 75 | 243 | 3.5 | 8.7 | 0.00 | 0.00 | 0.00 | 30 | 917.5 |
| 20260503234636 | 76 | 293 | 3.5 | 8.7 | 0.00 | 0.00 | 0.00 | 29 | 917.6 |
| 20260503233512 | 76 | 288 | 2.6 | 8.7 | 0.00 | 0.00 | 0.00 | 34 | 917.5 |
| 20260503233222 | 76 | 283 | 2.6 | 8.7 | 0.00 | 0.00 | 0.00 | 31 | 917.7 |
| 20260503232457 | 76 | 293 | 1.7 | 8.7 | 0.00 | 0.00 | 0.00 | 31 | 917.7 |
| 20260503231949 | 76 | 296 | 0.9 | 6.1 | 0.00 | 0.00 | 0.00 | 32 | 917.8 |
| 20260503231530 | 76 | 278 | 0.9 | 6.1 | 0.00 | 0.00 | 0.00 | 34 | 917.7 |
| 20260503230911 | 75 | 330 | 2.6 | 9.6 | 0.00 | 0.00 | 0.00 | 30 | 917.8 |
| 20260503225918 | 75 | 289 | 1.7 | 9.6 | 0.00 | 0.00 | 0.00 | 30 | 917.8 |
| 20260503225411 | 75 | 281 | 2.6 | 8.7 | 0.00 | 0.00 | 0.00 | 31 | 917.9 |
| 20260503225125 | 75 | 289 | 2.6 | 8.7 | 0.00 | 0.00 | 0.00 | 33 | 918.0 |
| 20260503224356 | 76 | 286 | 0.9 | 8.7 | 0.00 | 0.00 | 0.00 | 35 | 918.1 |
| 20260503223850 | 75 | 291 | 1.7 | 8.7 | 0.00 | 0.00 | 0.00 | 32 | 918.2 |
| 20260503223344 | 75 | 299 | 2.6 | 8.7 | 0.00 | 0.00 | 0.00 | 27 | 918.3 |
| 20260503222834 | 75 | 223 | 1.7 | 8.7 | 0.00 | 0.00 | 0.00 | 32 | 918.4 |
| 20260503222328 | 75 | 274 | 2.6 | 9.6 | 0.00 | 0.00 | 0.00 | 31 | 918.5 |
| 20260503221822 | 75 | 284 | 2.6 | 9.6 | 0.00 | 0.00 | 0.00 | 32 | 918.5 |
| 20260503221312 | 76 | 291 | 1.7 | 9.6 | 0.00 | 0.00 | 0.00 | 30 | 918.5 |
| 20260503221033 | 75 | 282 | 1.7 | 7.0 | 0.00 | 0.00 | 0.00 | 35 | 918.6 |
| 20260503220301 | 74 | 291 | 1.7 | 10.4 | 0.00 | 0.00 | 0.00 | 34 | 918.7 |
| 20260503215750 | 74 | 242 | 1.7 | 10.4 | 0.00 | 0.00 | 0.00 | 33 | 918.8 |
| 20260503215244 | 75 | 292 | 0.9 | 6.1 | 0.00 | 0.00 | 0.00 | 31 | 918.9 |